[[{"header":{"parameterUnit":"m.s-1","parameterCategory":1,"la1":30.2991,"la2":30.254,"lo1":-89.0895,"lo2":-89.0444,"dy":0.0017,"dx":0.0017,"nx":28,"ny":28,"refTime":"2023-07-28T09:00:00:Z","depth":0,"parameterNumber":2,"parameterNumberName":"U-component_of_WINDS"},"data":[0,0,0,0,0,0,0,0,0,0,0,0,0,0,0,0,0,0,0,0,0,0,0,0,0,0,0,0,0,0,0,0,0,0,0,0,0,0,0,0,0,0,0,0,0,0,0,0,0,0,0,0,0,0,0,0,0,0,0.5256,0.5257,0,0.5387,0.5389,0.539,0.5435,0.5435,0.5434,0.5434,0.5571,0.5575,0.5579,0,0,0,0,0,0,0,0,0,0,0,0,0,0.5043,0.5046,0.5255,0.5257,0.5259,0.5387,0.5389,0.5391,0.5435,0.5435,0.5434,0.5433,0.557,0.5575,0.558,0,0,0,0,0,0,0,0,0,0,0,0,0,0.5151,0.5048,0.5255,0.5296,0.5301,0.5387,0.5389,0.5391,0.5435,0.5435,0.5434,0.5433,0.5568,0.5574,0.558,0.5635,0,0,0.5599,0.5602,0,0,0,0,0,0,0,0,0.5145,0.5159,0.5289,0.5294,0.5299,0.5394,0.5365,0.5473,0.5436,0.5385,0.5434,0.5433,0.5513,0.5524,0.555,0.5642,0.5647,0.56,0.5604,0.5606,0.5608,0,0,0,0,0,0,0,0.5137,0.5153,0.5308,0.5291,0.5297,0.5309,0.5323,0.5385,0.5452,0.5389,0.5393,0.5407,0.5516,0.5544,0.5554,0.565,0.56,0.5605,0.5609,0.5612,0.5791,0.5792,0,0,0,0,0,0,0.5123,0.5147,0.5304,0.5312,0.5218,0.5313,0.5329,0.5365,0.5451,0.5464,0.5408,0.5409,0.5534,0.5547,0.5559,0.5628,0.5606,0.5612,0.5616,0.579,0.5791,0.5792,0,0,0,0,0,0,0.5118,0.5136,0.5298,0.523,0.5252,0.5318,0.5357,0.5368,0.5396,0.5466,0.5478,0.5425,0.5534,0.555,0.5615,0.5633,0.5615,0.5621,0.5789,0.579,0.5792,0.5767,0,0,0,0,0,0,0.5112,0.5134,0.5156,0.523,0.5255,0.5352,0.5358,0.5371,0.5406,0.5409,0.5485,0.5496,0.5534,0.5606,0.5622,0.5642,0.5626,0.5787,0.5789,0.5791,0.5766,0.5767,0.5768,0,0,0,0,0,0.5104,0.5144,0.5157,0.5175,0.5283,0.5353,0.5367,0.541,0.5408,0.543,0.5474,0.5494,0.5629,0.5612,0.563,0.5652,0.5786,0.5789,0.5791,0.5766,0.5767,0.5768,0,0,0,0,0,0,0.5071,0.5155,0.517,0.5235,0.5286,0.5361,0.539,0.541,0.5464,0.5464,0.5515,0.5531,0.5593,0.5629,0.5609,0.5709,0.5709,0.5715,0.5683,0.5685,0.5686,0.5676,0.5631,0,0,0,0,0,0.5071,0.5121,0.5191,0.5243,0.5267,0.5324,0.5356,0.5384,0.544,0.5462,0.5511,0.5565,0.5619,0.5654,0.5708,0.5771,0.5788,0.5796,0.5796,0.5797,0.5802,0.5837,0.584,0.58,0.58,0.58,0,0,0.5073,0.5125,0.5153,0.5237,0.528,0.533,0.5342,0.5395,0.5432,0.547,0.5534,0.5572,0.5635,0.5699,0.573,0.5732,0.5816,0.58,0.5799,0.5804,0.5839,0.5843,0.5847,0.5801,0.5801,0.5801,0,0,0.5101,0.5145,0.5192,0.5235,0.5299,0.5336,0.5347,0.5418,0.5444,0.5509,0.5538,0.5583,0.5676,0.572,0.5754,0.5796,0.5816,0.5812,0.5817,0.5851,0.5854,0.5857,0.5871,0.5876,0.5816,0.5816,0.5816,0,0.5095,0.5171,0.5214,0.5265,0.5301,0.5335,0.5383,0.5422,0.5502,0.5526,0.5526,0.5642,0.5687,0.5761,0.5771,0.5798,0.5812,0.5804,0.585,0.5853,0.5857,0.5871,0.5877,0.5815,0.5816,0.5816,0.5816,0,0.516,0.5212,0.5242,0.5316,0.5356,0.5405,0.5455,0.5489,0.5513,0.555,0.5615,0.567,0.5735,0.5755,0.5779,0.5832,0.5831,0.584,0.584,0.5859,0.5873,0.5879,0.5814,0.5814,0.5815,0.5815,0,0,0.5173,0.5268,0.5279,0.5312,0.5385,0.5426,0.5476,0.5539,0.5567,0.562,0.5663,0.574,0.5748,0.5786,0.5816,0.5845,0.5874,0.5851,0.5853,0.5853,0.5935,0.5927,0.5933,0.5887,0.5888,0.589,0.5929,0,0.521,0.53,0.534,0.5412,0.5461,0.5493,0.5537,0.5586,0.5621,0.5668,0.5707,0.576,0.5767,0.579,0.5821,0.5864,0.5891,0.5862,0.5928,0.593,0.5911,0.5941,0.5934,0.5969,0.5935,0.5936,0.5937,0,0.5266,0.5318,0.5395,0.546,0.5482,0.552,0.558,0.5624,0.568,0.5703,0.5745,0.5773,0.5827,0.5822,0.5897,0.5876,0.5905,0.593,0.5932,0.594,0.5935,0.595,0.5981,0.5986,0.5946,0.5946,0.5945,0,0.5267,0.5356,0.5413,0.5441,0.5519,0.5545,0.5579,0.5634,0.5668,0.5721,0.5743,0.5801,0.5833,0.5877,0.5919,0.5913,0.5989,0.5989,0.601,0.6009,0.6026,0.6024,0.6062,0.6044,0.6044,0.6044,0.6044,0,0.5305,0.535,0.5414,0.545,0.5501,0.5546,0.5596,0.5632,0.5681,0.5723,0.5756,0.5795,0.5848,0.5895,0.5928,0.5984,0.5998,0.6019,0.6027,0.6016,0.6013,0.6036,0.6035,0.6045,0.6045,0.6045,0.6045,0,0.5315,0.5359,0.5424,0.5492,0.551,0.5545,0.5603,0.5639,0.5675,0.5728,0.5743,0.58,0.5856,0.5902,0.5976,0.5998,0.6056,0.6066,0.6037,0.6041,0.606,0.6057,0.6114,0.6124,0.6099,0.6099,0.6099,0,0.5336,0.5372,0.5443,0.5473,0.5506,0.5555,0.559,0.5635,0.567,0.5735,0.5762,0.582,0.5869,0.5956,0.6004,0.606,0.6072,0.6088,0.6081,0.6068,0.6072,0.6069,0.6073,0.6088,0.6089,0.6089,0.6089,0,0.5369,0.5388,0.5437,0.5493,0.5534,0.558,0.5628,0.5651,0.5704,0.5742,0.5798,0.5836,0.591,0.5967,0.6028,0.6063,0.6084,0.609,0.6098,0.6087,0.6069,0.6078,0.6038,0.6089,0.6089,0.6089,0.6089,0.6089,0.5385,0.5418,0.5472,0.5525,0.5565,0.5608,0.5644,0.5684,0.5732,0.5795,0.5819,0.5876,0.5931,0.6014,0.6049,0.6095,0.6098,0.6109,0.6112,0.6115,0.6113,0.6061,0.6106,0.6107,0.6107,0.6107,0.6107,0,0.5419,0.5455,0.5503,0.5568,0.5609,0.5625,0.5678,0.5711,0.5762,0.581,0.5856,0.5921,0.5976,0.6027,0.6084,0.6111,0.6122,0.6125,0.6123,0.6131,0.6107,0.6095,0.6114,0.6114,0.6114,0.6114,0.6114,0.6114,0.5442,0.5498,0.5523,0.5599,0.5636,0.5692,0.5721,0.576,0.5799,0.5869,0.5914,0.5947,0.5996,0.6057,0.6108,0.6121,0.6141,0.614,0.6157,0.6134,0.6133,0.6131,0.612,0.6144,0.6144,0.6176,0.6177,0.6177]},{"header":{"parameterUnit":"m.s-1","parameterCategory":1,"la1":30.2991,"la2":30.254,"lo1":-89.0895,"lo2":-89.0444,"dy":0.0017,"dx":0.0017,"nx":28,"ny":28,"refTime":"2023-07-28T09:00:00:Z","depth":0,"parameterNumber":3,"parameterNumberName":"V-component_of_WINDS"},"data":[0,0,0,0,0,0,0,0,0,0,0,0,0,0,0,0,0,0,0,0,0,0,0,0,0,0,0,0,0,0,0,0,0,0,0,0,0,0,0,0,0,0,0,0,0,0,0,0,0,0,0,0,0,0,0,0,0,0,3.4014,3.4014,0,3.3963,3.3962,3.3962,3.3968,3.3968,3.3969,3.397,3.3911,3.3908,3.3906,0,0,0,0,0,0,0,0,0,0,0,0,0,3.4111,3.4109,3.4014,3.4013,3.4013,3.3963,3.3962,3.3961,3.3967,3.3969,3.397,3.3971,3.3911,3.3909,3.3906,0,0,0,0,0,0,0,0,0,0,0,0,0,3.4065,3.4109,3.4014,3.401,3.4009,3.3963,3.3962,3.3961,3.3967,3.3969,3.397,3.3971,3.3912,3.3909,3.3905,3.3858,0,0,3.3894,3.3893,0,0,0,0,0,0,0,0,3.4068,3.4061,3.4011,3.401,3.4009,3.3973,3.3974,3.3926,3.3967,3.3983,3.397,3.3972,3.393,3.3925,3.3912,3.3855,3.3853,3.3894,3.3892,3.389,3.3889,0,0,0,0,0,0,0,3.4071,3.4064,3.3994,3.401,3.4009,3.4009,3.4003,3.3965,3.395,3.3982,3.3982,3.3976,3.3929,3.3916,3.3911,3.3852,3.3894,3.3891,3.3889,3.3887,3.3752,3.3751,0,0,0,0,0,0,3.4076,3.4066,3.3995,3.3992,3.4042,3.4006,3.4,3.3983,3.395,3.3946,3.3975,3.3977,3.3921,3.3915,3.3909,3.3851,3.389,3.3887,3.3885,3.3754,3.3752,3.3751,0,0,0,0,0,0,3.4078,3.407,3.3997,3.4029,3.402,3.4003,3.3984,3.3982,3.3968,3.3945,3.3942,3.3964,3.3922,3.3914,3.3871,3.3849,3.3886,3.3882,3.3756,3.3753,3.3751,3.3735,0,0,0,0,0,0,3.4081,3.407,3.4054,3.4029,3.4018,3.3962,3.3983,3.398,3.3963,3.3964,3.3934,3.3931,3.3922,3.3876,3.3867,3.3845,3.3879,3.3757,3.3755,3.3752,3.3737,3.3732,3.3728,0,0,0,0,0,3.4084,3.4049,3.4053,3.4044,3.3998,3.3961,3.3955,3.3948,3.3961,3.3943,3.3928,3.3932,3.3853,3.3872,3.3862,3.3838,3.3759,3.3755,3.3752,3.3739,3.3733,3.3728,0,0,0,0,0,0,3.4069,3.4046,3.4049,3.4006,3.3986,3.3962,3.3939,3.3942,3.3915,3.3917,3.3908,3.3901,3.3858,3.3843,3.3865,3.379,3.3807,3.3802,3.3801,3.3795,3.379,3.3794,3.3877,0,0,0,0,0,3.4062,3.4036,3.4016,3.398,3.397,3.3956,3.394,3.3937,3.3914,3.3905,3.3887,3.3863,3.3833,3.3813,3.3784,3.3735,3.3728,3.3714,3.3709,3.3706,3.3701,3.3673,3.3666,3.374,3.374,3.374,0,0,3.4044,3.4028,3.4012,3.3976,3.396,3.3932,3.3949,3.3918,3.3896,3.3899,3.3858,3.3845,3.3817,3.3771,3.375,3.3757,3.3679,3.3701,3.3699,3.3696,3.3669,3.3662,3.3655,3.3738,3.3738,3.3738,0,0,3.3998,3.3984,3.3952,3.3936,3.3912,3.3904,3.3896,3.3872,3.3864,3.3823,3.3825,3.3798,3.3746,3.3727,3.371,3.3657,3.3658,3.3648,3.3623,3.3596,3.3591,3.3585,3.3565,3.3558,3.3643,3.3643,3.3643,0,3.3978,3.3938,3.3934,3.3904,3.3887,3.3892,3.3858,3.3842,3.3809,3.3797,3.3807,3.3743,3.3725,3.3673,3.3661,3.3647,3.3637,3.365,3.3592,3.3587,3.3582,3.3563,3.3555,3.3642,3.3642,3.3642,3.3642,0,3.3915,3.3887,3.3863,3.3834,3.3815,3.3783,3.3773,3.3754,3.3752,3.3742,3.37,3.3678,3.3645,3.3633,3.363,3.3581,3.3587,3.3595,3.3612,3.3574,3.3555,3.3548,3.364,3.3641,3.3641,3.3641,0,0,3.3856,3.3827,3.3818,3.3805,3.3779,3.3756,3.3724,3.3694,3.3677,3.3654,3.3625,3.3582,3.359,3.3571,3.3566,3.3542,3.3501,3.3553,3.3552,3.3543,3.3444,3.3438,3.3429,3.3502,3.3501,3.35,3.3446,0,3.3806,3.3752,3.3748,3.3698,3.3671,3.3675,3.3647,3.3627,3.3616,3.359,3.3578,3.3548,3.356,3.3549,3.3526,3.3511,3.3481,3.3515,3.3473,3.3472,3.3479,3.342,3.3413,3.3363,3.3439,3.3438,3.3437,0,3.3741,3.3719,3.3667,3.3645,3.3634,3.3609,3.3581,3.3557,3.3534,3.3528,3.3507,3.3506,3.347,3.349,3.344,3.3464,3.3446,3.3436,3.3434,3.3429,3.3451,3.3412,3.3347,3.334,3.3426,3.3427,3.3428,0,3.3703,3.3659,3.3623,3.3611,3.3585,3.3567,3.3555,3.3534,3.3516,3.3491,3.3479,3.3449,3.3433,3.3409,3.3398,3.3414,3.3349,3.3368,3.3341,3.3341,3.3326,3.3326,3.3256,3.3317,3.3317,3.3317,3.3317,0,3.3647,3.3614,3.3605,3.3582,3.3545,3.3541,3.3504,3.3492,3.3473,3.3447,3.3448,3.3422,3.3411,3.3383,3.3375,3.3334,3.3327,3.3319,3.3317,3.3319,3.332,3.3306,3.3309,3.3315,3.3315,3.3316,3.3316,0,3.3597,3.359,3.355,3.353,3.3524,3.3497,3.3479,3.3456,3.3447,3.3413,3.3404,3.3389,3.3356,3.3345,3.3304,3.3298,3.3251,3.3252,3.3259,3.3258,3.3232,3.3234,3.315,3.3138,3.3207,3.3207,3.3206,0,3.3561,3.3537,3.3515,3.3498,3.3487,3.346,3.3442,3.3437,3.3418,3.339,3.337,3.3338,3.3313,3.326,3.3243,3.3212,3.3212,3.3185,3.3207,3.3209,3.321,3.3211,3.3208,3.318,3.3179,3.3179,3.3178,0,3.3499,3.3497,3.3473,3.3448,3.3427,3.3406,3.3386,3.3372,3.3363,3.3341,3.331,3.329,3.325,3.3218,3.3186,3.3171,3.3172,3.3172,3.3163,3.3164,3.3169,3.3165,3.3247,3.3173,3.3173,3.3174,3.3174,3.3174,3.3454,3.3432,3.3414,3.3387,3.3372,3.3353,3.3331,3.332,3.3294,3.3262,3.326,3.3225,3.3202,3.316,3.3144,3.3115,3.3122,3.3111,3.3108,3.3105,3.3102,3.3175,3.3109,3.311,3.311,3.311,3.311,0,3.339,3.3379,3.3355,3.3328,3.3306,3.3313,3.329,3.3271,3.3242,3.3221,3.3197,3.3159,3.3128,3.311,3.3079,3.3059,3.3059,3.3051,3.3051,3.3048,3.3098,3.3108,3.3052,3.3052,3.3052,3.3052,3.3052,3.3052,3.3355,3.3319,3.3314,3.327,3.3258,3.3226,3.3213,3.3195,3.3179,3.3139,3.3114,3.3103,3.3083,3.305,3.3021,3.3017,3.3004,3.2996,3.2991,3.3038,3.3044,3.305,3.3059,3.2993,3.2993,3.2943,3.2943,3.2942]}]]